Change the Weather History Date:

Sunday, October 27, 2013

  Actual Average Record
Temperature  
Mean Temperature 52 °F -  
Max Temperature 60 °F 59 °F 75 °F (2010)
Min Temperature 44 °F 40 °F 30 °F (2006)
Degree Days  
Heating Degree Days 14    
Growing Degree Days 2 (Base 50)    
Moisture  
Dew Point 32 °F    
Average Humidity 48    
Maximum Humidity 60    
Minimum Humidity 36    
Precipitation  
Precipitation 0.00 in - - ()
Sea Level Pressure  
Sea Level Pressure 30.02 in    
Wind  
Wind Speed 9 mph (West)    
Max Wind Speed 15 mph    
Max Gust Speed 23 mph    
Visibility 10 miles    
Events      
Averages and records for this station are not official NWS values.
T = Trace of Precipitation, MM = Missing Value Source: NWS Daily Summary

Daily Weather History Graph

Daily Weather History Graph

Search for Another Location

Airport or City:

Trip Planner

Search our weather history database for the weather conditions in past years. The results will help you decide how hot, cold, wet, or windy it might be!

Date:

Astronomy

Oct. 27, 2013 Rise Set
Actual Time 7:23 AM EDT 6:03 PM EDT
Civil Twilight 6:55 AM EDT 6:31 PM EDT
Nautical Twilight 6:24 AM EDT 7:02 PM EDT
Astronomical Twilight 5:52 AM EDT 7:34 PM EDT
Moon 12:18 AM EDT (10/27) 2:11 PM EDT (10/27)
Length of Visible Light 11h 35m
Length of Day
10h 39m
Last Quarter, 44% of the Moon is Illuminated
Oct 27
Last Quarter
Nov 3
New
Nov 10
First Quarter
Nov 17
Full
Nov 25
Last Quarter

Hourly Weather History & Observations

Time (EDT) Temp. Windchill Dew Point Humidity Pressure Visibility Wind Dir Wind Speed Gust Speed Precip Events Conditions
12:54 AM 53.1 °F - 33.1 °F 47% 29.92 in 10.0 mi West 9.2 mph - N/A   Overcast
1:54 AM 52.0 °F - 33.1 °F 49% 29.92 in 10.0 mi WSW 9.2 mph - N/A   Overcast
2:54 AM 51.1 °F - 30.9 °F 46% 29.92 in 10.0 mi West 9.2 mph - N/A   Overcast
3:54 AM 48.9 °F - 30.9 °F 50% 29.92 in 10.0 mi West 8.1 mph - N/A   Clear
4:54 AM 46.0 °F 43.9 °F 30.9 °F 56% 29.93 in 10.0 mi WSW 4.6 mph - N/A   Clear
5:54 AM 44.1 °F 39.5 °F 30.9 °F 60% 29.95 in 10.0 mi West 8.1 mph - N/A   Clear
6:54 AM 46.0 °F 41.4 °F 32.0 °F 58% 29.97 in 10.0 mi West 9.2 mph - N/A   Clear
7:54 AM 45.0 °F 41.2 °F 32.0 °F 60% 30.00 in 10.0 mi WSW 6.9 mph - N/A   Clear
8:54 AM 50.0 °F - 34.0 °F 54% 30.03 in 10.0 mi West 8.1 mph - N/A   Clear
9:54 AM 53.1 °F - 34.0 °F 48% 30.04 in 10.0 mi WNW 10.4 mph - N/A   Clear
10:54 AM 55.0 °F - 34.0 °F 45% 30.04 in 10.0 mi WNW 13.8 mph - N/A   Clear
11:54 AM 55.0 °F - 33.1 °F 43% 30.03 in 10.0 mi WNW 10.4 mph 21.9 mph N/A   Clear
12:54 PM 57.0 °F - 32.0 °F 39% 30.01 in 10.0 mi West 15.0 mph 23.0 mph N/A   Clear
1:54 PM 57.9 °F - 30.9 °F 36% 30.00 in 10.0 mi West 15.0 mph 20.7 mph N/A   Clear
2:54 PM 59.0 °F - 32.0 °F 36% 30.01 in 10.0 mi WNW 10.4 mph 20.7 mph N/A   Clear
3:54 PM 59.0 °F - 32.0 °F 36% 30.01 in 10.0 mi West 6.9 mph 21.9 mph N/A   Mostly Cloudy
4:54 PM 57.0 °F - 30.9 °F 37% 30.03 in 10.0 mi West 13.8 mph 23.0 mph N/A   Clear
5:54 PM 55.0 °F - 30.0 °F 38% 30.05 in 10.0 mi NW 10.4 mph - N/A   Clear
6:54 PM 52.0 °F - 30.0 °F 43% 30.09 in 10.0 mi NW 3.5 mph - N/A   Clear
7:54 PM 48.9 °F - 30.9 °F 50% 30.11 in 10.0 mi West 4.6 mph - N/A   Clear
8:54 PM 48.9 °F - 30.0 °F 48% 30.13 in 10.0 mi WNW 3.5 mph - N/A   Clear
9:54 PM 48.0 °F - 30.0 °F 50% 30.15 in 10.0 mi WNW 4.6 mph - N/A   Clear
10:54 PM 45.0 °F - 30.9 °F 58% 30.17 in 10.0 mi Calm Calm - N/A   Clear
11:54 PM 46.0 °F 44.8 °F 30.9 °F 56% 30.17 in 10.0 mi West 3.5 mph - N/A   Clear